Date String (YYYY-MM-DD hh:mm:ss) UTC,Instrument flags,Ambient pressure (hPa),Sample flow (lpm),Bypass flow (lpm),Sample temperature (°C),Ambient temperature (°C),ASC tube jacket temperature (°C),LED temperature (°C),Box temperature (°C),Sample RH (%),Span deviation,Mass concentration (μg/m³),Mass concentration (μg/m³),Mass concentration (μg/m³)
DateTimeUTC,F1_M11,P_M11,Q1_M11,Q2_M11,T1_M11,T2_M11,T3_M11,T4_M11,T5_M11,U1_M11,ZSPAN_M11,X2_M11,X0_M11,X1_M11
2023-02-06 00:00:00,,0817.7,5.03,0.00,26.5,25.2,00.0,35.4,28.3,11.5,0000.0,0009.35,0014.95,0008.61
2023-02-06 00:01:00,,0817.7,5.01,0.00,26.5,25.2,00.0,35.4,28.3,11.3,0000.0,0009.36,0015.55,0008.61
2023-02-06 00:02:00,,0817.6,4.95,0.00,26.5,25.2,00.0,35.4,28.3,11.2,0000.0,0009.39,0015.19,0008.60
2023-02-06 00:03:00,,0817.6,5.01,0.00,26.6,25.2,00.0,35.4,28.4,11.1,0000.0,0009.42,0014.77,0008.62
2023-02-06 00:04:00,,0817.5,5.02,0.00,26.6,25.3,00.0,35.4,28.4,11.2,0000.0,0009.43,0014.84,0008.63
2023-02-06 00:05:00,,0817.5,4.98,0.00,26.6,25.3,00.0,35.4,28.4,11.2,0000.0,0009.39,0014.68,0008.62
2023-02-06 00:06:00,,0817.6,5.04,0.00,26.6,25.3,00.0,35.4,28.4,11.1,0000.0,0009.43,0014.74,0008.62
2023-02-06 00:07:00,,0817.6,4.96,0.00,26.6,25.3,00.0,35.4,28.4,10.3,0000.0,0009.46,0014.73,0008.66
2023-02-06 00:08:00,,0817.5,5.02,0.00,26.6,25.3,00.0,35.4,28.4,10.2,0000.0,0009.46,0014.84,0008.72
2023-02-06 00:09:00,,0817.6,5.02,0.00,26.6,25.3,00.0,35.4,28.4,10.2,0000.0,0009.53,0014.82,0008.78
2023-02-06 00:10:00,,0817.5,4.94,0.00,26.6,25.3,00.0,35.4,28.4,11.4,0000.0,0009.54,0014.45,0008.78
2023-02-06 00:11:00,,0817.6,5.02,0.00,26.6,25.3,00.0,35.4,28.4,11.9,0000.0,0009.51,0014.39,0008.75
2023-02-06 00:12:00,,0817.7,5.02,0.00,26.6,25.3,00.0,35.4,28.4,12.1,0000.0,0009.42,0014.18,0008.67
2023-02-06 00:13:00,,0817.7,4.95,0.00,26.6,25.3,00.0,35.4,28.4,12.3,0000.0,0009.30,0014.33,0008.59
2023-02-06 00:14:00,,0817.7,5.02,0.00,26.6,25.3,00.0,35.4,28.4,12.3,0000.0,0009.18,0014.17,0008.50
2023-02-06 00:15:00,,0817.7,5.01,0.00,26.6,25.3,00.0,35.4,28.4,12.3,0000.0,0009.08,0014.00,0008.40
2023-02-06 00:16:00,,0817.7,4.99,0.00,26.6,25.3,00.0,35.4,28.4,11.8,0000.0,0009.07,0014.08,0008.31
2023-02-06 00:17:00,,0817.7,5.03,0.00,26.6,25.3,00.0,35.4,28.4,11.6,0000.0,0009.00,0014.04,0008.22
2023-02-06 00:18:00,,0817.7,4.95,0.00,26.6,25.3,00.0,35.4,28.4,11.6,0000.0,0008.92,0014.44,0008.11
2023-02-06 00:19:00,,0817.6,5.03,0.00,26.6,25.3,00.0,35.4,28.4,11.5,0000.0,0008.81,0014.32,0007.98
2023-02-06 00:20:00,,0817.6,5.02,0.00,26.6,25.3,00.0,35.4,28.4,11.6,0000.0,0008.64,0014.08,0007.81
2023-02-06 00:21:00,,0817.6,4.95,0.00,26.6,25.3,00.0,35.4,28.4,11.7,0000.0,0008.55,0014.02,0007.70
2023-02-06 00:22:00,,0817.7,5.03,0.00,26.6,25.3,00.0,35.4,28.4,11.8,0000.0,0008.52,0014.07,0007.63
2023-02-06 00:23:00,,0817.8,5.01,0.00,26.6,25.3,00.0,35.4,28.4,11.8,0000.3,0008.50,0013.70,0007.60
2023-02-06 00:24:00,,0817.7,4.96,0.00,26.6,25.2,00.0,35.4,28.4,11.9,0001.3,0008.52,0013.33,0007.59
2023-02-06 00:25:00,,0817.6,5.02,0.00,26.6,25.2,00.0,35.4,28.4,12.0,0001.1,0008.51,0013.42,0007.57
2023-02-06 00:26:00,,0817.5,5.03,0.00,26.6,25.2,00.0,35.4,28.4,11.9,0001.2,0008.53,0013.96,0007.56
2023-02-06 00:27:00,,0817.6,4.94,0.00,26.6,25.2,00.0,35.4,28.4,11.9,0000.3,0008.44,0013.94,0007.55
2023-02-06 00:28:00,,0817.6,5.02,0.00,26.6,25.2,00.0,35.4,28.4,11.8,-000.1,0008.41,0014.04,0007.55
2023-02-06 00:29:00,,0817.7,5.02,0.00,26.6,25.2,00.0,35.4,28.4,11.8,0000.0,0008.41,0014.65,0007.54
2023-02-06 00:30:00,,0817.7,4.95,0.00,26.6,25.2,00.0,35.4,28.4,11.7,0000.0,0008.37,0014.64,0007.53
2023-02-06 00:31:00,,0817.6,5.03,0.00,26.6,25.2,00.0,35.4,28.4,11.6,0000.0,0008.35,0014.51,0007.54
2023-02-06 00:32:00,,0817.6,5.02,0.00,26.6,25.2,00.0,35.4,28.4,11.6,0000.0,0008.36,0014.66,0007.54
2023-02-06 00:33:00,,0817.6,4.97,0.00,26.6,25.2,00.0,35.4,28.4,11.5,0000.0,0008.43,0014.88,0007.58
2023-02-06 00:34:00,,0817.6,5.01,0.00,26.6,25.2,00.0,35.4,28.4,11.5,0000.0,0008.50,0014.97,0007.61
2023-02-06 00:35:00,,0817.6,5.04,0.00,26.6,25.2,00.0,35.4,28.4,11.6,0000.0,0008.48,0014.83,0007.62
2023-02-06 00:36:00,,0817.7,4.95,0.00,26.6,25.2,00.0,35.4,28.4,11.5,0000.0,0008.53,0015.00,0007.64
2023-02-06 00:37:00,,0817.7,5.01,0.00,26.6,25.2,00.0,35.4,28.4,11.4,0000.0,0008.57,0014.90,0007.64
2023-02-06 00:38:00,,0817.6,5.03,0.00,26.6,25.2,00.0,35.4,28.4,11.2,0000.0,0008.60,0015.00,0007.66
2023-02-06 00:39:00,,0817.6,4.99,0.00,26.6,25.2,00.0,35.4,28.4,11.2,0000.0,0008.62,0014.75,0007.66
2023-02-06 00:40:00,,0817.5,4.98,0.00,26.6,25.1,00.0,35.4,28.4,11.3,0000.0,0008.65,0013.90,0007.68
2023-02-06 00:41:00,,0817.6,5.02,0.00,26.6,25.1,00.0,35.4,28.4,11.3,0000.1,0008.69,0014.59,0007.69
2023-02-06 00:42:00,,0817.7,5.02,0.00,26.6,25.1,00.0,35.4,28.4,11.3,0001.3,0008.71,0014.82,0007.70
2023-02-06 00:43:00,,0817.8,4.96,0.00,26.6,25.1,00.0,35.4,28.4,11.3,0001.6,0008.70,0014.67,0007.71
2023-02-06 00:44:00,,0817.8,5.01,0.00,26.6,25.1,00.0,35.4,28.4,11.3,0001.9,0008.68,0014.56,0007.71
2023-02-06 00:45:00,,0817.8,5.04,0.00,26.6,25.1,00.0,35.4,28.4,11.3,0002.3,0008.61,0014.40,0007.70
2023-02-06 00:46:00,,0817.8,4.97,0.00,26.6,25.1,00.0,35.4,28.4,11.3,0002.1,0008.59,0015.01,0007.69
2023-02-06 00:47:00,,0817.7,4.99,0.00,26.6,25.1,00.0,35.4,28.4,11.4,0000.0,0008.59,0014.90,0007.68
2023-02-06 00:48:00,,0817.7,5.02,0.00,26.6,25.1,00.0,35.4,28.4,11.4,0000.2,0008.54,0014.52,0007.68
2023-02-06 00:49:00,,0817.7,5.00,0.00,26.6,25.1,00.0,35.4,28.4,11.4,0003.0,0008.52,0014.67,0007.68
2023-02-06 00:50:00,,0817.7,4.96,0.00,26.6,25.1,00.0,35.4,28.4,11.4,0001.6,0008.51,0014.77,0007.68
2023-02-06 00:51:00,,0817.7,5.03,0.00,26.6,25.0,00.0,35.4,28.4,11.4,0003.2,0008.43,0014.70,0007.65
2023-02-06 00:52:00,,0817.8,5.02,0.00,26.5,25.0,00.0,35.4,28.3,11.4,0002.9,0008.42,0013.95,0007.65
2023-02-06 00:53:00,,0817.8,4.96,0.00,26.5,25.0,00.0,35.4,28.3,11.3,0002.3,0008.40,0013.68,0007.65
2023-02-06 00:54:00,,0817.9,5.01,0.00,26.5,24.9,00.0,35.4,28.3,11.3,0000.0,0008.34,0013.55,0007.63
2023-02-06 00:55:00,,0817.9,5.03,0.00,26.5,24.9,00.0,35.4,28.3,11.3,0000.0,0008.31,0014.58,0007.61
2023-02-06 00:56:00,,0817.9,4.96,0.00,26.5,24.8,00.0,35.4,28.3,11.3,0000.8,0008.34,0015.11,0007.61
2023-02-06 00:57:00,,0817.7,5.00,0.00,26.5,24.8,00.0,35.4,28.3,11.2,0002.4,0008.44,0014.85,0007.62
2023-02-06 00:58:00,,0817.7,5.02,0.00,26.5,24.9,00.0,35.4,28.3,11.2,0001.3,0008.42,0014.80,0007.61
2023-02-06 00:59:00,,0817.7,5.02,0.00,26.5,24.9,00.0,35.4,28.3,11.2,0001.1,0008.42,0014.87,0007.61
